Location: Newark
(53.7833°N, 9.4833°E)
Time: 12:51:58
(UTC+00:00)

Envisat - Pass Details

Date: 12 December 2019
Orbit: 764 x 766 km, 98.1° (Epoch: 17 January)

Event Time Altitude Azimuth Distance (km) Brightness Sun altitude
Rises 06:41:54 0° 13° (NNE) 3,248 6.1 -6.7°
Reaches altitude 10° 06:44:13 10° 12° (NNE) 2,317 5.3 -6.4°
Maximum altitude 06:49:19 74° 288° (WNW) 802 3.0 -5.7°
Drops below altitude 10° 06:54:22 10° 205° (SSW) 2,299 5.6 -5.1°
Sets 06:56:40 0° 203° (SSW) 3,221 6.4 -4.8°
